WXM80 ListenWXM80 Stop

You find our weather info also at:

UK Metoffice

WeatherCloud

Weather Underground

Northeastern Weather Network

AWEKAS

Citizen Weather Observer Program (CWOP)

HAMweather, WeatherForYou, PWS Weather


Weather Underground History page Text

Daily Summary for July 6, 2017 Units:  English    Metric   Both
« Previous Day
Next Day »
Daily Weekly Monthly Yearly Custom
  High: Low: Average:
Temperature: 79.6 °F 65.2 °F 71.3 °F
Dew Point: 69.3 °F 55.3 °F 62.6 °F
Humidity: 94 % 47 % 76 %
Wind Speed: 3.4 mph 0.0 mph 0.3 mph
Wind Gust: 7.0 mph - -
Wind:- - SE
Pressure: 30.15 in 29.94 in -
Precipitation: 0.00 in    
Historical Graphs
 
 
Tabular Data for July 6, 2017
Time Temperature Dew Point Pressure Wind Wind Speed Wind Gust Humidity Rainfall Rate (Hourly)
00:02 67.0 °F 61.7 °F 30.15 in Calm     83 % 0.00 in
00:07 66.8 °F 61.5 °F 30.15 in Calm     83 % 0.00 in
00:12 66.7 °F 61.4 °F 30.15 in Calm     83 % 0.00 in
00:17 66.6 °F 61.3 °F 30.15 in Calm     83 % 0.00 in
00:22 66.5 °F 61.2 °F 30.15 in Calm     83 % 0.00 in
00:27 66.4 °F 61.4 °F 30.14 in Calm     84 % 0.00 in
00:37 66.4 °F 62.1 °F 30.15 in Calm   1.2 mph 86 % 0.00 in
00:42 66.4 °F 62.4 °F 30.14 in Calm     87 % 0.00 in
00:47 66.4 °F 62.7 °F 30.14 in Calm     88 % 0.00 in
00:52 66.4 °F 62.7 °F 30.14 in Calm     88 % 0.00 in
00:57 66.4 °F 62.7 °F 30.14 in Calm   1.2 mph 88 % 0.00 in
01:02 66.4 °F 62.7 °F 30.14 in Calm     88 % 0.00 in
01:07 66.4 °F 62.7 °F 30.13 in Calm     88 % 0.00 in
01:12 66.4 °F 62.7 °F 30.13 in Calm     88 % 0.00 in
01:17 66.4 °F 62.7 °F 30.13 in Calm     88 % 0.00 in
01:22 66.4 °F 62.7 °F 30.13 in Calm     88 % 0.00 in
01:27 66.4 °F 62.7 °F 30.13 in Calm     88 % 0.00 in
01:32 66.3 °F 62.6 °F 30.12 in Calm     88 % 0.00 in
01:37 66.3 °F 62.6 °F 30.12 in Calm     88 % 0.00 in
01:42 66.2 °F 62.5 °F 30.12 in Calm     88 % 0.00 in
01:47 66.2 °F 62.5 °F 30.12 in Calm     88 % 0.00 in
01:52 66.1 °F 62.1 °F 30.12 in Calm     87 % 0.00 in
01:57 66.1 °F 62.4 °F 30.12 in Calm     88 % 0.00 in
02:03 66.0 °F 62.3 °F 30.12 in Calm     88 % 0.00 in
02:08 65.9 °F 62.2 °F 30.13 in Calm     88 % 0.00 in
02:13 65.9 °F 62.2 °F 30.12 in Calm     88 % 0.00 in
02:18 65.8 °F 62.1 °F 30.12 in Calm     88 % 0.00 in
02:23 65.8 °F 62.1 °F 30.12 in Calm     88 % 0.00 in
02:28 65.7 °F 62.4 °F 30.12 in Calm     89 % 0.00 in
02:33 65.7 °F 62.4 °F 30.12 in Calm     89 % 0.00 in
02:39 65.7 °F 62.4 °F 30.12 in Calm     89 % 0.00 in
02:44 65.6 °F 62.3 °F 30.12 in Calm     89 % 0.00 in
02:49 65.6 °F 62.3 °F 30.12 in Calm     89 % 0.00 in
02:54 65.5 °F 62.2 °F 30.13 in Calm     89 % 0.00 in
02:59 65.4 °F 62.1 °F 30.12 in Calm     89 % 0.00 in
03:04 65.4 °F 62.1 °F 30.12 in Calm     89 % 0.00 in
03:09 65.4 °F 62.1 °F 30.12 in Calm     89 % 0.00 in
03:14 65.4 °F 62.4 °F 30.12 in Calm     90 % 0.00 in
03:19 65.3 °F 62.3 °F 30.12 in Calm     90 % 0.00 in
03:24 65.3 °F 62.0 °F 30.12 in Calm     89 % 0.00 in
03:29 65.3 °F 62.0 °F 30.12 in Calm     89 % 0.00 in
03:34 65.2 °F 61.9 °F 30.12 in Calm     89 % 0.00 in
03:39 65.2 °F 61.9 °F 30.11 in Calm     89 % 0.00 in
03:44 65.2 °F 61.9 °F 30.11 in Calm     89 % 0.00 in
03:49 65.2 °F 61.9 °F 30.11 in Calm     89 % 0.00 in
03:54 65.2 °F 61.9 °F 30.11 in Calm     89 % 0.00 in
03:59 65.2 °F 62.2 °F 30.11 in Calm     90 % 0.00 in
04:04 65.2 °F 62.2 °F 30.11 in Calm     90 % 0.00 in
04:09 65.2 °F 62.2 °F 30.11 in Calm     90 % 0.00 in
04:14 65.2 °F 62.2 °F 30.11 in Calm     90 % 0.00 in
04:19 65.2 °F 62.2 °F 30.11 in Calm     90 % 0.00 in
04:24 65.2 °F 62.2 °F 30.10 in Calm     90 % 0.00 in
04:29 65.2 °F 62.5 °F 30.10 in Calm     91 % 0.00 in
04:32 65.2 °F 62.5 °F 30.11 in Calm     91 % 0.00 in
04:37 65.2 °F 62.5 °F 30.11 in Calm     91 % 0.00 in
04:42 65.2 °F 62.5 °F 30.11 in Calm     91 % 0.00 in
04:47 65.2 °F 62.8 °F 30.11 in Calm     92 % 0.00 in
04:59 65.2 °F 62.8 °F 30.11 in Calm     92 % 0.00 in
05:03 65.2 °F 62.8 °F 30.11 in Calm     92 % 0.00 in
05:08 65.3 °F 62.9 °F 30.11 in Calm     92 % 0.00 in
05:10 65.2 °F 62.8 °F 30.11 in Calm     92 % 0.00 in
05:15 65.3 °F 62.9 °F 30.11 in Calm     92 % 0.00 in
05:20 65.3 °F 62.9 °F 30.11 in Calm     92 % 0.00 in
05:21 65.3 °F 62.9 °F 30.10 in Calm     92 % 0.00 in
05:22 65.3 °F 62.9 °F 30.11 in Calm     92 % 0.00 in
05:23 65.3 °F 62.9 °F 30.10 in Calm     92 % 0.00 in
05:24 65.3 °F 62.9 °F 30.11 in Calm     92 % 0.00 in
05:25 65.3 °F 62.9 °F 30.10 in Calm     92 % 0.00 in
05:26 65.3 °F 62.9 °F 30.11 in Calm     92 % 0.00 in
05:27 65.3 °F 62.9 °F 30.11 in Calm     92 % 0.00 in
05:28 65.3 °F 62.9 °F 30.11 in Calm     92 % 0.00 in
05:30 65.4 °F 63.0 °F 30.11 in Calm     92 % 0.00 in
05:33 65.4 °F 63.0 °F 30.10 in Calm     92 % 0.00 in
05:38 65.4 °F 63.0 °F 30.11 in Calm     92 % 0.00 in
05:43 65.5 °F 63.4 °F 30.11 in Calm     93 % 0.00 in
05:48 65.6 °F 63.5 °F 30.10 in Calm   1.2 mph 93 % 0.00 in
05:53 65.6 °F 63.5 °F 30.11 in Calm     93 % 0.00 in
05:58 65.7 °F 63.6 °F 30.10 in Calm     93 % 0.00 in
06:03 65.7 °F 63.6 °F 30.10 in Calm     93 % 0.00 in
06:08 65.8 °F 63.7 °F 30.10 in SE 0.1 mph 1.2 mph 93 % 0.00 in
06:13 65.8 °F 63.7 °F 30.11 in Calm     93 % 0.00 in
06:18 65.9 °F 63.8 °F 30.11 in Calm     93 % 0.00 in
06:23 66.0 °F 63.9 °F 30.11 in Calm     93 % 0.00 in
06:28 66.0 °F 63.9 °F 30.11 in Calm     93 % 0.00 in
06:33 66.1 °F 64.0 °F 30.11 in Calm     93 % 0.00 in
06:38 66.2 °F 64.1 °F 30.11 in Calm     93 % 0.00 in
06:44 66.3 °F 64.2 °F 30.11 in Calm     93 % 0.00 in
06:49 66.3 °F 64.2 °F 30.11 in Calm     93 % 0.00 in
06:54 66.6 °F 64.5 °F 30.11 in Calm     93 % 0.00 in
06:58 66.7 °F 64.9 °F 30.11 in Calm     94 % 0.00 in
07:04 66.8 °F 65.0 °F 30.11 in Calm     94 % 0.00 in
07:08 66.9 °F 64.8 °F 30.11 in Calm     93 % 0.00 in
07:13 67.1 °F 65.0 °F 30.11 in Calm     93 % 0.00 in
07:18 67.3 °F 65.5 °F 30.11 in Calm     94 % 0.00 in
07:24 67.5 °F 65.4 °F 30.10 in Calm     93 % 0.00 in
07:29 67.7 °F 65.6 °F 30.10 in Calm     93 % 0.00 in
07:34 67.8 °F 65.7 °F 30.10 in Calm     93 % 0.00 in
07:39 68.0 °F 65.9 °F 30.10 in Calm     93 % 0.00 in
07:44 68.1 °F 66.0 °F 30.10 in Calm     93 % 0.00 in
07:49 68.2 °F 65.8 °F 30.10 in Calm     92 % 0.00 in
07:52 68.3 °F 65.9 °F 30.11 in Calm     92 % 0.00 in
07:57 68.4 °F 66.0 °F 30.11 in Calm   1.2 mph 92 % 0.00 in
08:02 68.6 °F 66.2 °F 30.11 in Calm     92 % 0.00 in
08:07 68.7 °F 66.3 °F 30.11 in Calm     92 % 0.00 in
08:12 68.9 °F 66.5 °F 30.11 in Calm     92 % 0.00 in
08:17 69.0 °F 66.3 °F 30.11 in ENE 0.1 mph 1.2 mph 91 % 0.00 in
08:22 69.1 °F 66.4 °F 30.11 in Calm   1.2 mph 91 % 0.00 in
08:27 69.2 °F 66.5 °F 30.11 in Calm   1.2 mph 91 % 0.00 in
08:32 69.3 °F 66.2 °F 30.12 in Calm     90 % 0.00 in
08:37 69.4 °F 66.3 °F 30.11 in Calm     90 % 0.00 in
08:42 69.4 °F 66.3 °F 30.11 in Calm     90 % 0.00 in
08:47 69.5 °F 66.4 °F 30.11 in Calm     90 % 0.00 in
08:52 69.6 °F 66.5 °F 30.11 in Calm     90 % 0.00 in
08:57 69.8 °F 67.1 °F 30.11 in Calm     91 % 0.00 in
09:02 70.0 °F 67.3 °F 30.11 in Calm     91 % 0.00 in
09:07 70.2 °F 67.4 °F 30.11 in Calm     91 % 0.00 in
09:12 70.3 °F 67.5 °F 30.11 in Calm     91 % 0.00 in
09:17 70.4 °F 67.3 °F 30.11 in Calm     90 % 0.00 in
09:23 70.6 °F 67.8 °F 30.11 in Calm     91 % 0.00 in
09:37 71.2 °F 68.1 °F 30.11 in NNW 0.4 mph 2.3 mph 90 % 0.00 in
09:42 71.5 °F 67.8 °F 30.11 in NNW 0.1 mph 1.2 mph 88 % 0.00 in
09:48 71.9 °F 68.2 °F 30.11 in Calm   2.3 mph 88 % 0.00 in
10:00 72.4 °F 68.0 °F 30.11 in NE 1.3 mph 4.0 mph 86 % 0.00 in
10:05 72.6 °F 68.2 °F 30.11 in Calm   2.3 mph 86 % 0.00 in
10:11 72.8 °F 68.4 °F 30.11 in Calm   1.0 mph 86 % 0.00 in
10:16 72.9 °F 68.1 °F 30.12 in Calm   2.0 mph 85 % 0.00 in
10:21 73.1 °F 68.3 °F 30.12 in Calm   2.0 mph 85 % 0.00 in
10:26 73.2 °F 68.4 °F 30.12 in Calm   3.0 mph 85 % 0.00 in
10:31 73.4 °F 68.6 °F 30.12 in Calm   3.5 mph 85 % 0.00 in
10:36 73.5 °F 68.4 °F 30.12 in NE 0.4 mph 3.5 mph 84 % 0.00 in
10:41 73.5 °F 68.4 °F 30.12 in NNE 0.1 mph 1.2 mph 84 % 0.00 in
10:46 73.6 °F 68.5 °F 30.12 in NE 0.1 mph 2.3 mph 84 % 0.00 in
10:51 73.7 °F 68.6 °F 30.11 in Calm     84 % 0.00 in
10:56 73.8 °F 68.7 °F 30.11 in Calm     84 % 0.00 in
11:16 74.3 °F 68.8 °F 30.12 in NE 1.6 mph 4.0 mph 83 % 0.00 in
11:21 74.4 °F 68.5 °F 30.11 in ENE 1.6 mph 3.5 mph 82 % 0.00 in
11:26 74.5 °F 68.6 °F 30.11 in Calm   1.2 mph 82 % 0.00 in
11:31 74.6 °F 68.7 °F 30.11 in NE 0.4 mph 2.3 mph 82 % 0.00 in
11:36 74.8 °F 68.9 °F 30.11 in NE 0.2 mph 1.2 mph 82 % 0.00 in
11:41 75.0 °F 68.8 °F 30.10 in NE 0.2 mph 1.2 mph 81 % 0.00 in
11:46 75.1 °F 68.9 °F 30.10 in Calm     81 % 0.00 in
11:51 75.3 °F 69.1 °F 30.10 in NE 0.1 mph 1.2 mph 81 % 0.00 in
11:56 75.5 °F 69.3 °F 30.10 in NNW 0.5 mph 1.2 mph 81 % 0.00 in
12:01 75.6 °F 69.0 °F 30.09 in Calm   1.2 mph 80 % 0.00 in
12:06 75.7 °F 69.1 °F 30.09 in NNE 0.8 mph 2.3 mph 80 % 0.00 in
12:11 75.7 °F 68.7 °F 30.09 in NNE 0.2 mph 1.2 mph 79 % 0.00 in
12:16 75.8 °F 68.8 °F 30.09 in NNE 0.4 mph 1.2 mph 79 % 0.00 in
12:21 75.9 °F 68.2 °F 30.09 in NE 0.7 mph 2.3 mph 77 % 0.00 in
12:26 75.8 °F 65.7 °F 30.09 in SE 1.6 mph 4.0 mph 71 % 0.00 in
12:31 75.8 °F 65.7 °F 30.09 in Calm   2.3 mph 71 % 0.00 in
12:36 75.9 °F 64.2 °F 30.09 in SE 1.4 mph 3.5 mph 67 % 0.00 in
12:41 76.0 °F 64.2 °F 30.09 in SSE 1.5 mph 2.3 mph 67 % 0.00 in
12:46 76.0 °F 63.4 °F 30.09 in SSE 0.9 mph 3.5 mph 65 % 0.00 in
12:51 75.9 °F 62.4 °F 30.08 in Calm   2.3 mph 63 % 0.00 in
12:56 75.9 °F 61.9 °F 30.08 in SE 0.1 mph 3.5 mph 62 % 0.00 in
13:01 75.9 °F 63.7 °F 30.08 in SE 0.3 mph 2.3 mph 66 % 0.00 in
13:06 75.9 °F 63.3 °F 30.08 in SE 1.1 mph 3.5 mph 65 % 0.00 in
13:11 75.9 °F 64.2 °F 30.08 in Calm     67 % 0.00 in
13:16 75.9 °F 64.2 °F 30.08 in SE 1.3 mph 3.0 mph 67 % 0.00 in
13:21 75.8 °F 63.2 °F 30.08 in SE 0.7 mph 1.2 mph 65 % 0.00 in
13:26 75.8 °F 65.3 °F 30.08 in SE 1.0 mph 3.5 mph 70 % 0.00 in
13:32 75.8 °F 65.3 °F 30.08 in Calm   1.2 mph 70 % 0.00 in
13:37 75.8 °F 64.9 °F 30.08 in Calm   1.0 mph 69 % 0.00 in
13:42 75.8 °F 65.3 °F 30.08 in Calm   1.2 mph 70 % 0.00 in
13:47 75.8 °F 64.9 °F 30.08 in SE 0.3 mph 2.3 mph 69 % 0.00 in
13:52 75.8 °F 65.3 °F 30.08 in SSE 1.4 mph 3.5 mph 70 % 0.00 in
13:57 75.8 °F 64.5 °F 30.07 in ESE 2.1 mph 3.5 mph 68 % 0.00 in
14:02 75.7 °F 63.1 °F 30.07 in SE 1.0 mph 2.0 mph 65 % 0.00 in
14:07 75.7 °F 63.5 °F 30.07 in SSE 1.1 mph 4.0 mph 66 % 0.00 in
14:11 75.8 °F 64.5 °F 30.07 in SSE 1.0 mph 5.0 mph 68 % 0.00 in
14:16 75.8 °F 63.2 °F 30.07 in SE 3.0 mph 7.0 mph 65 % 0.00 in
14:21 75.9 °F 62.8 °F 30.07 in SE 1.0 mph 4.0 mph 64 % 0.00 in
14:26 76.0 °F 62.5 °F 30.07 in SE 1.0 mph 4.0 mph 63 % 0.00 in
14:31 76.1 °F 62.6 °F 30.07 in SSE 2.8 mph 5.8 mph 63 % 0.00 in
14:36 76.1 °F 62.1 °F 30.06 in SE 1.0 mph 6.0 mph 62 % 0.00 in
14:41 76.2 °F 63.6 °F 30.07 in Calm   3.0 mph 65 % 0.00 in
14:45 76.2 °F 62.2 °F 30.06 in Calm   4.6 mph 62 % 0.00 in
14:51 76.2 °F 61.8 °F 30.06 in SE 1.0 mph 5.0 mph 61 % 0.00 in
14:53 76.2 °F 61.8 °F 30.06 in SE 1.4 mph 3.5 mph 61 % 0.00 in
15:00 76.3 °F 61.9 °F 30.06 in SSE 3.4 mph 5.0 mph 61 % 0.00 in
15:05 76.5 °F 63.4 °F 30.06 in SE 0.2 mph 1.0 mph 64 % 0.00 in
15:10 76.7 °F 64.0 °F 30.05 in SE 2.9 mph 4.6 mph 65 % 0.00 in
15:15 76.9 °F 61.0 °F 30.05 in SSE 1.8 mph 3.5 mph 58 % 0.00 in
15:25 77.2 °F 61.3 °F 30.04 in SSE 2.2 mph 6.0 mph 58 % 0.00 in
15:30 77.3 °F 61.9 °F 30.04 in NNE 0.1 mph 1.2 mph 59 % 0.00 in
15:34 77.5 °F 65.2 °F 30.04 in Calm     66 % 0.00 in
15:39 77.7 °F 64.1 °F 30.04 in SSE 0.8 mph 3.5 mph 63 % 0.00 in
15:44 77.8 °F 60.8 °F 30.04 in SE 2.2 mph 4.6 mph 56 % 0.00 in
15:49 78.0 °F 60.0 °F 30.04 in SE 1.2 mph 4.6 mph 54 % 0.00 in
15:54 78.2 °F 62.2 °F 30.03 in SE 0.3 mph 4.6 mph 58 % 0.00 in
15:59 78.6 °F 62.1 °F 30.03 in SE 1.7 mph 3.5 mph 57 % 0.00 in
16:04 78.8 °F 61.8 °F 30.03 in SE 0.5 mph 2.3 mph 56 % 0.00 in
16:09 79.1 °F 62.1 °F 30.03 in SE 2.7 mph 3.5 mph 56 % 0.00 in
16:14 79.3 °F 62.7 °F 30.02 in SSE 1.5 mph 4.0 mph 57 % 0.00 in
16:19 79.4 °F 62.8 °F 30.02 in SE 0.1 mph 1.2 mph 57 % 0.00 in
16:24 79.6 °F 61.5 °F 30.02 in SE 1.7 mph 4.6 mph 54 % 0.00 in
16:29 79.6 °F 59.3 °F 30.02 in SE 0.8 mph 3.5 mph 50 % 0.00 in
16:34 79.6 °F 62.0 °F 30.02 in SE 0.2 mph 1.2 mph 55 % 0.00 in
16:39 79.6 °F 61.0 °F 30.02 in Calm   1.2 mph 53 % 0.00 in
16:44 79.6 °F 61.5 °F 30.01 in SE 0.8 mph 2.0 mph 54 % 0.00 in
16:49 79.5 °F 59.2 °F 30.01 in Calm   3.5 mph 50 % 0.00 in
16:54 79.4 °F 60.2 °F 30.01 in SE 0.3 mph 1.2 mph 52 % 0.00 in
16:59 79.3 °F 60.7 °F 30.00 in SE 0.8 mph 2.3 mph 53 % 0.00 in
17:04 79.3 °F 60.1 °F 30.00 in SSE 0.7 mph 3.5 mph 52 % 0.00 in
17:09 79.2 °F 59.0 °F 30.00 in SE 3.2 mph 5.8 mph 50 % 0.00 in
17:15 79.2 °F 58.4 °F 30.00 in SE 1.5 mph 3.0 mph 49 % 0.00 in
17:20 79.0 °F 57.0 °F 30.00 in SE 1.9 mph 4.6 mph 47 % 0.00 in
17:25 78.9 °F 58.7 °F 30.00 in Calm   1.2 mph 50 % 0.00 in
17:30 78.8 °F 58.0 °F 29.99 in Calm   1.2 mph 49 % 0.00 in
17:35 78.8 °F 60.2 °F 29.99 in SSE 1.3 mph 3.5 mph 53 % 0.00 in
17:40 78.7 °F 59.6 °F 29.99 in SSE 1.2 mph 3.5 mph 52 % 0.00 in
17:45 78.6 °F 58.4 °F 29.99 in SE 0.9 mph 3.5 mph 50 % 0.00 in
17:50 78.5 °F 56.6 °F 29.99 in SE 2.3 mph 5.8 mph 47 % 0.00 in
17:55 78.5 °F 57.2 °F 29.98 in SSE 1.5 mph 3.5 mph 48 % 0.00 in
18:00 78.4 °F 57.7 °F 29.99 in SSW 0.4 mph 2.3 mph 49 % 0.00 in
18:05 78.3 °F 57.0 °F 29.99 in Calm   1.2 mph 48 % 0.00 in
18:11 78.2 °F 56.3 °F 29.98 in SE 1.3 mph 3.5 mph 47 % 0.00 in
18:16 78.0 °F 57.9 °F 29.98 in Calm   2.0 mph 50 % 0.00 in
18:21 77.8 °F 56.5 °F 29.99 in Calm   3.0 mph 48 % 0.00 in
18:26 77.6 °F 56.9 °F 29.99 in East 1.0 mph 2.0 mph 49 % 0.00 in
18:31 77.5 °F 57.9 °F 29.98 in Calm   5.0 mph 51 % 0.00 in
18:36 77.4 °F 56.2 °F 29.99 in SE 1.0 mph 5.0 mph 48 % 0.00 in
18:41 77.3 °F 56.6 °F 29.99 in Calm   5.0 mph 49 % 0.00 in
18:46 77.1 °F 55.3 °F 29.99 in SSE 1.0 mph 6.0 mph 47 % 0.00 in
18:51 76.8 °F 55.6 °F 29.99 in SE 2.0 mph 3.5 mph 48 % 0.00 in
18:56 76.7 °F 56.6 °F 29.99 in Calm   3.0 mph 50 % 0.00 in
19:01 76.4 °F 55.8 °F 29.99 in SE 1.4 mph 5.8 mph 49 % 0.00 in
19:06 76.3 °F 56.8 °F 29.99 in SE 1.0 mph 6.0 mph 51 % 0.00 in
19:11 76.1 °F 57.2 °F 29.99 in SE 0.4 mph 3.5 mph 52 % 0.00 in
19:16 76.0 °F 57.1 °F 29.98 in SE 0.1 mph 1.2 mph 52 % 0.00 in
19:21 75.8 °F 58.0 °F 29.99 in Calm     54 % 0.00 in
19:26 75.6 °F 57.3 °F 29.98 in Calm     53 % 0.00 in
19:31 75.3 °F 57.5 °F 29.98 in SE 0.4 mph 2.3 mph 54 % 0.00 in
19:36 75.1 °F 57.8 °F 29.98 in Calm   1.2 mph 55 % 0.00 in
19:41 74.9 °F 58.1 °F 29.98 in Calm     56 % 0.00 in
19:50 74.4 °F 58.2 °F 29.98 in Calm   2.3 mph 57 % 0.00 in
19:55 74.2 °F 58.5 °F 29.98 in Calm   1.2 mph 58 % 0.00 in
20:00 74.0 °F 58.8 °F 29.98 in Calm     59 % 0.00 in
20:05 73.8 °F 58.1 °F 29.98 in SE 0.2 mph 1.2 mph 58 % 0.00 in
20:11 73.5 °F 58.3 °F 29.97 in SSE 1.2 mph 3.5 mph 59 % 0.00 in
20:14 73.4 °F 58.2 °F 29.98 in ESE 0.1 mph   59 % 0.00 in
20:19 73.2 °F 58.0 °F 29.98 in ESE 0.1 mph 1.2 mph 59 % 0.00 in
20:24 73.0 °F 58.3 °F 29.97 in ESE 0.1 mph 2.3 mph 60 % 0.00 in
20:29 72.8 °F 58.1 °F 29.97 in ESE 0.8 mph 2.3 mph 60 % 0.00 in
20:34 72.6 °F 58.4 °F 29.97 in ESE 0.5 mph 1.2 mph 61 % 0.00 in
20:39 72.4 °F 58.2 °F 29.97 in ESE 1.2 mph 2.3 mph 61 % 0.00 in
20:44 72.3 °F 58.5 °F 29.97 in ESE 0.5 mph 2.3 mph 62 % 0.00 in
20:49 72.2 °F 58.5 °F 29.97 in Calm   3.5 mph 62 % 0.00 in
20:54 72.0 °F 58.7 °F 29.97 in Calm     63 % 0.00 in
20:59 71.9 °F 58.6 °F 29.97 in Calm     63 % 0.00 in
21:04 71.8 °F 58.5 °F 29.97 in Calm   2.3 mph 63 % 0.00 in
21:09 71.6 °F 58.8 °F 29.97 in Calm     64 % 0.00 in
21:14 71.6 °F 59.2 °F 29.97 in Calm     65 % 0.00 in
21:19 71.5 °F 59.1 °F 29.97 in Calm     65 % 0.00 in
21:24 71.4 °F 59.4 °F 29.97 in Calm   1.2 mph 66 % 0.00 in
21:29 71.4 °F 59.4 °F 29.97 in SE 0.2 mph 1.2 mph 66 % 0.00 in
21:34 71.3 °F 59.8 °F 29.97 in SE 0.3 mph 2.3 mph 67 % 0.00 in
21:39 71.2 °F 59.7 °F 29.97 in Calm   1.2 mph 67 % 0.00 in
21:44 71.1 °F 60.0 °F 29.97 in Calm     68 % 0.00 in
21:49 71.1 °F 60.0 °F 29.97 in Calm   1.2 mph 68 % 0.00 in
21:54 70.9 °F 59.8 °F 29.97 in North 1.9 mph 3.0 mph 68 % 0.00 in
21:59 70.8 °F 59.7 °F 29.97 in North 0.3 mph 1.2 mph 68 % 0.00 in
22:04 70.7 °F 59.6 °F 29.97 in Calm     68 % 0.00 in
22:09 70.6 °F 59.5 °F 29.96 in Calm     68 % 0.00 in
22:14 70.5 °F 59.8 °F 29.96 in Calm     69 % 0.00 in
22:20 70.4 °F 59.7 °F 29.96 in Calm     69 % 0.00 in
22:25 70.4 °F 60.1 °F 29.96 in Calm     70 % 0.00 in
22:30 70.3 °F 60.4 °F 29.95 in Calm     71 % 0.00 in
22:35 70.2 °F 60.0 °F 29.96 in Calm     70 % 0.00 in
22:40 70.2 °F 60.7 °F 29.95 in Calm     72 % 0.00 in
22:45 70.2 °F 61.5 °F 29.95 in Calm     74 % 0.00 in
22:50 70.1 °F 61.8 °F 29.96 in Calm     75 % 0.00 in
22:55 70.0 °F 62.1 °F 29.95 in Calm     76 % 0.00 in
23:00 70.0 °F 62.1 °F 29.95 in Calm     76 % 0.00 in
23:05 69.9 °F 62.0 °F 29.95 in Calm     76 % 0.00 in
23:10 69.9 °F 62.0 °F 29.94 in Calm     76 % 0.00 in
23:15 69.8 °F 61.9 °F 29.95 in Calm     76 % 0.00 in
23:20 69.8 °F 61.9 °F 29.95 in Calm     76 % 0.00 in
23:26 69.7 °F 61.8 °F 29.95 in Calm     76 % 0.00 in
23:31 69.6 °F 61.7 °F 29.95 in Calm     76 % 0.00 in
23:36 69.6 °F 61.3 °F 29.95 in Calm     75 % 0.00 in
23:41 69.5 °F 61.6 °F 29.95 in Calm     76 % 0.00 in
23:46 69.5 °F 61.6 °F 29.94 in Calm     76 % 0.00 in
23:51 69.5 °F 61.6 °F 29.94 in Calm     76 % 0.00 in
23:56 69.5 °F 62.0 °F 29.94 in Calm     77 % 0.00 in
Crab Meadow Weather
Compliments of Weather Underground - 3 mb

Script developed by  Jim McMurry - jmcmurry@mwt.net Adapted for the template by  Wim van der Kuil - Leuven-Template.eu

Weather Terms: Enhanced Fujita Scale or EF-Scale - A scale of wind damage intensity in which wind speeds are inferred from analysis of wind damage. All tornadoes and most other windstorms are assigned a numerical rating from this scale according to the most intense damage caused by the storm. EF0 (weak) 6585 mph, light damage EF1 (weak) 86110 mph, moderate damage EF2 (strong) 111135 mph, considerable damage EF3 (strong) 136165 mph, severe damage EF4 (violent) 166200 mph, devastating damage EF5 (violent) >200 mph, incredible damage.